Weather History for KARB - November, 2014

Change the Weather History Date:

Wednesday, November 26, 2014

  Actual Average Record
Temperature  
Mean Temperature 30 °F -  
Max Temperature 33 °F 43 °F - (-1)
Min Temperature 28 °F 28 °F - (-1)
Degree Days  
Heating Degree Days 34    
Moisture  
Dew Point 22 °F    
Average Humidity 70    
Maximum Humidity 76    
Minimum Humidity 66    
Precipitation  
Precipitation 0.00 in - - ()
Sea Level Pressure  
Sea Level Pressure 30.14 in    
Wind  
Wind Speed 3 mph (NNE)    
Max Wind Speed 10 mph    
Max Gust Speed -    
Visibility 10 miles    
Events      
Averages and records for this station are not official NWS values.
T = Trace of Precipitation, MM = Missing Value Source: NWS Daily Summary

Daily Weather History Graph

Daily Weather History Graph

Search for Another Location

Airport or City:

Trip Planner

Search our weather history database for the weather conditions in past years. The results will help you decide how hot, cold, wet, or windy it might be!

Date:

Astronomy

Nov. 26, 2014 Rise Set
Actual Time 7:38 AM EST 5:05 PM EST
Civil Twilight 7:07 AM EST 5:36 PM EST
Nautical Twilight 6:33 AM EST 6:11 PM EST
Astronomical Twilight 5:59 AM EST 6:44 PM EST
Moon 11:08 AM EST (11/26) 9:38 PM EST (11/26)
Length of Visible Light 10h 29m
Length of Day
9h 27m
Waxing Crescent, 21% of the Moon is Illuminated
Nov 26
Waxing Crescent
Nov 29
First Quarter
Dec 6
Full
Dec 14
Last Quarter
Dec 21
New

Hourly Weather History & Observations

Time (EST) Temp. Windchill Dew Point Humidity Pressure Visibility Wind Dir Wind Speed Gust Speed Precip Events Conditions
12:53 AM 28.9 °F 23.9 °F 19.0 °F 67% 30.23 in 10.0 mi NW 4.6 mph - N/A   Overcast
1:53 AM 28.0 °F - 19.0 °F 69% 30.20 in 10.0 mi Calm Calm - N/A   Overcast
2:53 AM 28.0 °F - 19.0 °F 69% 30.21 in 10.0 mi Calm Calm - N/A   Overcast
3:53 AM 28.9 °F 25.2 °F 19.0 °F 67% 30.21 in 10.0 mi NNE 3.5 mph - N/A   Overcast
4:53 AM 28.0 °F - 19.0 °F 69% 30.21 in 10.0 mi Calm Calm - N/A   Overcast
5:53 AM 28.0 °F - 19.0 °F 69% 30.20 in 10.0 mi Calm Calm - N/A   Overcast
6:53 AM 28.9 °F 25.2 °F 19.0 °F 67% 30.19 in 10.0 mi NE 3.5 mph - N/A   Overcast
7:53 AM 28.9 °F - 19.9 °F 69% 30.19 in 10.0 mi Calm Calm - N/A   Overcast
8:53 AM 30.0 °F 25.2 °F 19.9 °F 66% 30.20 in 10.0 mi East 4.6 mph - N/A   Overcast
9:53 AM 30.0 °F 26.5 °F 21.0 °F 69% 30.19 in 10.0 mi East 3.5 mph - N/A   Overcast
10:53 AM 30.9 °F - 23.0 °F 72% 30.19 in 10.0 mi Calm Calm - N/A   Overcast
11:53 AM 30.9 °F - 21.9 °F 69% 30.16 in 10.0 mi Calm Calm - N/A   Overcast
12:43 PM 32.0 °F - 21.9 °F 66% 30.10 in 10.0 mi Calm Calm - N/A   Overcast
12:53 PM 32.0 °F 28.7 °F 21.9 °F 66% 30.13 in 10.0 mi East 3.5 mph - N/A   Overcast
1:53 PM 32.0 °F 27.5 °F 23.0 °F 69% 30.13 in 10.0 mi ESE 4.6 mph - N/A   Overcast
2:53 PM 32.0 °F - 23.0 °F 69% 30.12 in 10.0 mi Calm Calm - N/A   Overcast
3:11 PM 33.1 °F 28.7 °F 23.0 °F 66% 30.08 in 10.0 mi East 4.6 mph - N/A   Overcast
3:53 PM 33.1 °F - 23.0 °F 66% 30.12 in 10.0 mi Calm Calm - N/A   Overcast
4:09 PM 33.1 °F - 23.0 °F 66% 30.10 in 10.0 mi Calm Calm - N/A   Overcast
4:18 PM 32.0 °F - 23.0 °F 69% 30.10 in 7.0 mi Calm Calm - N/A   Overcast
4:28 PM 32.0 °F 28.7 °F 23.0 °F 69% 30.10 in 7.0 mi NNE 3.5 mph - N/A   Overcast
4:53 PM 32.0 °F 27.5 °F 24.1 °F 73% 30.13 in 7.0 mi North 4.6 mph - 0.00 in   Overcast
5:53 PM 32.0 °F 26.4 °F 24.1 °F 73% 30.12 in 10.0 mi North 5.8 mph - N/A   Overcast
6:28 PM 30.9 °F 24.3 °F 24.1 °F 76% 30.08 in 10.0 mi North 6.9 mph - N/A   Overcast
6:53 PM 32.0 °F 24.8 °F 24.1 °F 73% 30.11 in 10.0 mi North 8.1 mph - N/A   Overcast
7:53 PM 30.9 °F 24.3 °F 24.1 °F 76% 30.11 in 10.0 mi North 6.9 mph - N/A   Overcast
8:53 PM 30.9 °F 23.5 °F 23.0 °F 72% 30.10 in 10.0 mi North 8.1 mph - N/A   Overcast
9:53 PM 30.9 °F 23.5 °F 23.0 °F 72% 30.11 in 10.0 mi North 8.1 mph - N/A   Overcast
10:53 PM 30.9 °F 23.5 °F 23.0 °F 72% 30.11 in 10.0 mi NNE 8.1 mph - N/A   Overcast
11:53 PM 30.0 °F 21.1 °F 23.0 °F 75% 30.12 in 10.0 mi North 10.4 mph - N/A   Overcast